Location: Britton
(32.5485°N, 97.0678°W)
Time: 13:59:04
(UTC+00:00)

Daily predictions for brighter satellites

Satellite Brightness Start Highest point End
(mag) Time Altitude Azimuth Time Altitude Azimuth Time Altitude Azimuth
YAOGAN 6 4.3 12:05:35 17° WSW 12:05:35 17° WSW 12:06:45 10° SW
CZ-4B R/B 3.7 12:01:42 10° NNE 12:05:09 46° E 12:08:37 10° S
Cosmos 1408 Rocket 3.9 12:01:57 10° S 12:06:13 66° E 12:10:28 10° NNE
OAO 3 Rocket 4.0 12:06:12 20° W 12:09:14 41° SSW 12:13:51 10° SE
BREEZE-M DEB 2.8 12:11:17 18° WSW 12:13:07 57° NNW 12:18:55 10° NE
OE (NEXTSAT) 4.2 12:12:45 21° NW 12:14:52 87° SSW 12:18:16 10° SE
USA 215 4.0 12:08:53 10° ESE 12:15:06 49° NE 12:21:21 10° NNW
Cosmos 836 Rocket 4.5 12:10:52 10° NNW 12:16:08 86° WSW 12:21:19 10° SSE
Cosmos 2279 Rocket 3.9 12:11:15 10° N 12:17:25 74° W 12:23:35 10° S
Cosmos 1867 4.3 12:13:50 16° NW 12:17:35 35° WSW 12:22:27 10° S
Nadezhda 4 Rocket 4.2 12:13:55 10° S 12:20:02 78° E 12:26:14 10° N
Cosmos 1503 Rocket 4.3 12:17:37 10° SW 12:22:33 42° WNW 12:27:36 10° N
DMSP B5D2-2 4.5 12:19:51 10° SSE 12:25:01 68° ENE 12:30:11 10° N
Cosmos 1656 Rocket 4.4 12:22:00 10° WSW 12:26:32 27° WNW 12:31:06 10° N
Cosmos 1515 Rocket 3.9 12:25:14 10° N 12:29:34 67° E 12:33:51 10° SSE
SJ 16-02 1.4 12:25:54 10° SSW 12:30:17 83° ESE 12:34:40 10° NNE
CZ-2C R/B 3.2 12:26:17 10° SSW 12:31:25 39° W 12:36:29 10° NNW
Cosmos 1340 Rocket 3.1 12:29:04 10° S 12:32:57 70° E 12:36:54 10° NNE
Cosmos 1777 Rocket 3.9 12:28:40 10° SSW 12:33:51 80° WNW 12:39:05 10° NNE
BREEZE-M DEB (TANK) 3.7 12:19:23 10° NW 12:34:23 77° SW 12:38:37 10° SE
SL-27 R/B 4.4 12:31:46 10° N 12:34:57 30° ENE 12:38:04 10° SE
Cosmos 1500 Rocket 3.6 12:38:04 10° S 12:42:30 84° W 12:46:59 10° N
Landsat 5 4.5 12:39:34 10° SSW 12:43:33 31° W 12:47:33 10° NW
Cosmos 1939 Rocket 2.7 12:43:45 10° N 12:47:38 66° WNW 12:51:27 10° SSW
NOAA 6 4.2 12:43:20 10° NNE 12:48:28 82° ESE 12:53:34 10° S
Cosmos 773 Rocket 4.4 12:43:49 10° N 12:49:00 69° ENE 12:54:07 10° SSE
Cosmos 1763 Rocket 4.2 23:38:42 10° SSW 23:43:39 56° WNW 23:48:39 10° N
Aurora 2 Rocket 4.2 23:40:30 10° WSW 23:44:38 36° S 23:50:19 10° ESE
Cosmos 841 Rocket 3.5 23:44:15 10° S 23:49:21 63° ESE 23:54:27 10° NNE
Cosmos 1697 Rocket 3.1 23:48:09 10° N 23:53:24 39° ENE 23:58:37 10° SE
Cosmos 1782 2.9 23:50:17 10° S 23:54:11 55° E 23:58:06 10° NNE
Cosmos 1602 4.1 23:50:43 10° N 23:54:22 40° E 23:58:01 10° SSE
Okean O Rocket 3.1 23:53:40 10° ESE 23:56:19 16° ENE 23:58:59 10° NNE
